Hourly Weather Rudka

Today, 21 April, Wednesday

Time Temperature Precipitation Wind Pressure Humidity
00:00 +8°C° 0.1 mm 2 mps 741 mmHg 78%
01:00 +7°C° 0 mm 2 mps 741 mmHg 83%
02:00 +7°C° 0.1 mm 2 mps 740 mmHg 85%
03:00 +6°C° 0.1 mm 2 mps 740 mmHg 87%
04:00 +6°C° 0.1 mm 2 mps 740 mmHg 89%
05:00 +7°C° 0 mm 3 mps 740 mmHg 86%
06:00 +8°C° 0 mm 3 mps 740 mmHg 82%
07:00 +8°C° 0 mm 4 mps 740 mmHg 78%
08:00 +10°C° 0.3 mm 4 mps 740 mmHg 72%
09:00 +12°C° 0.3 mm 4 mps 740 mmHg 66%
10:00 +13°C° 0.3 mm 4 mps 740 mmHg 59%
11:00 +14°C° 0.3 mm 5 mps 740 mmHg 54%
12:00 +15°C° 0.3 mm 5 mps 740 mmHg 49%
13:00 +15°C° 0 mm 5 mps 740 mmHg 44%
14:00 +15°C° 0 mm 5 mps 740 mmHg 45%
15:00 +15°C° 0 mm 5 mps 739 mmHg 45%
16:00 +15°C° 0 mm 5 mps 739 mmHg 46%
17:00 +13°C° 0 mm 4 mps 739 mmHg 52%
18:00 +12°C° 0 mm 3 mps 739 mmHg 58%
19:00 +12°C° 0 mm 2 mps 740 mmHg 65%
20:00 +10°C° 0 mm 2 mps 740 mmHg 68%
21:00 +9°C° 0 mm 2 mps 740 mmHg 72%
22:00 +9°C° 0 mm 3 mps 740 mmHg 76%
23:00 +8°C° 0 mm 3 mps 740 mmHg 78%

Tomorrow, 22 April, Thursday

Time Temperature Precipitation Wind Pressure Humidity
00:00 +8°C° 0 mm 3 mps 740 mmHg 80%
01:00 +7°C° 0 mm 3 mps 740 mmHg 82%
02:00 +7°C° 0 mm 3 mps 740 mmHg 86%
03:00 +5°C° 0 mm 3 mps 740 mmHg 90%
04:00 +5°C° 0 mm 2 mps 741 mmHg 95%
05:00 +4°C° 0.3 mm 3 mps 741 mmHg 93%
06:00 +4°C° 0.3 mm 3 mps 741 mmHg 92%
07:00 +4°C° 0.3 mm 4 mps 742 mmHg 91%
08:00 +4°C° 0.3 mm 4 mps 742 mmHg 81%
09:00 +5°C° 0.3 mm 5 mps 743 mmHg 71%
10:00 +4°C° 0.3 mm 6 mps 743 mmHg 61%
11:00 +5°C° 0 mm 6 mps 743 mmHg 54%
12:00 +7°C° 0 mm 6 mps 743 mmHg 47%
13:00 +8°C° 0 mm 6 mps 743 mmHg 40%
14:00 +8°C° 0 mm 6 mps 743 mmHg 41%
15:00 +8°C° 0 mm 7 mps 743 mmHg 41%
16:00 +8°C° 0 mm 7 mps 743 mmHg 41%
17:00 +7°C° 0 mm 6 mps 743 mmHg 48%
18:00 +5°C° 0 mm 5 mps 744 mmHg 54%
19:00 +4°C° 0 mm 4 mps 744 mmHg 61%
20:00 +4°C° 0 mm 4 mps 744 mmHg 67%
21:00 +3°C° 0 mm 3 mps 744 mmHg 73%
22:00 +2°C° 0 mm 3 mps 745 mmHg 79%
23:00 +2°C° 0 mm 3 mps 745 mmHg 81%

Day after tomorrow, 23 April, Friday

Time Temperature Precipitation Wind Pressure Humidity
00:00 +1°C° 0 mm 3 mps 745 mmHg 84%
01:00 +1°C° 0 mm 3 mps 745 mmHg 87%
02:00 +1°C° 0 mm 3 mps 745 mmHg 88%
03:00 0°C° 0 mm 3 mps 745 mmHg 89%
04:00 0°C° 0 mm 3 mps 745 mmHg 89%
05:00 0°C° 0 mm 4 mps 746 mmHg 83%
06:00 +1°C° 0 mm 4 mps 746 mmHg 76%
07:00 +2°C° 0 mm 5 mps 746 mmHg 70%
08:00 +5°C° 0 mm 5 mps 746 mmHg 61%
09:00 +5°C° 0 mm 6 mps 746 mmHg 53%
10:00 +7°C° 0 mm 6 mps 746 mmHg 45%
11:00 +6°C° 0.3 mm 7 mps 746 mmHg 49%
12:00 +6°C° 0.3 mm 8 mps 746 mmHg 54%
13:00 +6°C° 0.3 mm 9 mps 746 mmHg 59%
14:00 +5°C° 0.2 mm 8 mps 746 mmHg 63%
15:00 +4°C° 0.2 mm 8 mps 746 mmHg 66%
16:00 +4°C° 0.2 mm 7 mps 746 mmHg 70%
17:00 +3°C° 0.2 mm 6 mps 747 mmHg 72%
18:00 +3°C° 0.2 mm 4 mps 747 mmHg 73%
19:00 +3°C° 0.2 mm 3 mps 747 mmHg 74%
20:00 +2°C° 0 mm 3 mps 748 mmHg 74%
21:00 +1°C° 0 mm 3 mps 748 mmHg 75%
22:00 +1°C° 0 mm 3 mps 748 mmHg 75%
23:00 0°C° 0 mm 3 mps 748 mmHg 75%

24 April, Saturday

Time Temperature Precipitation Wind Pressure Humidity
00:00 0°C° 0 mm 3 mps 748 mmHg 74%
01:00 -1°C° 0 mm 3 mps 748 mmHg 73%
02:00 -1°C° 0 mm 3 mps 748 mmHg 73%
03:00 -1°C° 0 mm 3 mps 749 mmHg 72%
04:00 -1°C° 0 mm 3 mps 749 mmHg 72%
05:00 +1°C° 0 mm 3 mps 749 mmHg 69%
06:00 +1°C° 0 mm 4 mps 749 mmHg 66%
07:00 +3°C° 0 mm 4 mps 749 mmHg 63%
08:00 +5°C° 0 mm 4 mps 749 mmHg 56%
09:00 +6°C° 0 mm 4 mps 749 mmHg 49%
10:00 +7°C° 0 mm 5 mps 749 mmHg 42%
11:00 +8°C° 0 mm 5 mps 748 mmHg 40%
12:00 +9°C° 0 mm 5 mps 748 mmHg 38%
13:00 +9°C° 0 mm 5 mps 748 mmHg 36%
14:00 +9°C° 0.1 mm 5 mps 747 mmHg 44%
15:00 +8°C° 0.1 mm 5 mps 747 mmHg 53%
16:00 +7°C° 0.1 mm 5 mps 747 mmHg 62%
17:00 +6°C° 0.3 mm 4 mps 747 mmHg 71%
18:00 +5°C° 0.3 mm 3 mps 747 mmHg 79%
19:00 +4°C° 0.3 mm 3 mps 747 mmHg 88%
20:00 +4°C° 0.1 mm 3 mps 747 mmHg 90%
21:00 +3°C° 0.1 mm 3 mps 747 mmHg 92%
22:00 +2°C° 0.1 mm 3 mps 747 mmHg 94%
23:00 +2°C° 0.1 mm 3 mps 748 mmHg 94%

25 April, Sunday

Time Temperature Precipitation Wind Pressure Humidity
00:00 +1°C° 0.1 mm 3 mps 748 mmHg 94%
01:00 +2°C° 0.1 mm 2 mps 748 mmHg 94%
02:00 +1°C° 0 mm 2 mps 749 mmHg 94%
03:00 +1°C° 0 mm 2 mps 749 mmHg 95%
04:00 -1°C° 0 mm 2 mps 749 mmHg 95%
05:00 +1°C° 0 mm 2 mps 749 mmHg 88%
06:00 +2°C° 0 mm 2 mps 749 mmHg 80%
07:00 +2°C° 0 mm 3 mps 750 mmHg 73%
08:00 +4°C° 0 mm 3 mps 750 mmHg 62%
09:00 +5°C° 0 mm 4 mps 750 mmHg 51%
10:00 +6°C° 0 mm 4 mps 750 mmHg 40%
11:00 +7°C° 0 mm 4 mps 749 mmHg 39%
12:00 +7°C° 0 mm 5 mps 749 mmHg 37%
13:00 +8°C° 0 mm 5 mps 749 mmHg 36%
14:00 +8°C° 0 mm 5 mps 748 mmHg 37%
15:00 +8°C° 0 mm 5 mps 748 mmHg 38%
16:00 +8°C° 0 mm 5 mps 748 mmHg 38%
17:00 +7°C° 0 mm 4 mps 748 mmHg 45%
18:00 +7°C° 0 mm 3 mps 748 mmHg 51%
19:00 +5°C° 0 mm 2 mps 748 mmHg 57%
20:00 +5°C° 0 mm 2 mps 747 mmHg 58%
21:00 +4°C° 0 mm 2 mps 747 mmHg 59%
22:00 +5°C° 0 mm 1 mps 747 mmHg 60%
23:00 +4°C° 0 mm 1 mps 747 mmHg 61%

26 April, Monday

Time Temperature Precipitation Wind Pressure Humidity
00:00 +4°C° 0 mm 1 mps 747 mmHg 63%
01:00 +3°C° 0 mm 1 mps 746 mmHg 64%
02:00 +3°C° 0 mm 1 mps 746 mmHg 64%
03:00 +2°C° 0 mm 2 mps 745 mmHg 65%
04:00 +2°C° 0 mm 2 mps 745 mmHg 65%
05:00 +3°C° 0 mm 2 mps 745 mmHg 62%
06:00 +4°C° 0 mm 2 mps 744 mmHg 59%
07:00 +5°C° 0 mm 2 mps 744 mmHg 57%
08:00 +7°C° 0 mm 2 mps 744 mmHg 52%
09:00 +8°C° 0 mm 2 mps 744 mmHg 47%
10:00 +10°C° 0 mm 2 mps 743 mmHg 43%
11:00 +11°C° 0 mm 3 mps 743 mmHg 41%
12:00 +11°C° 0 mm 4 mps 743 mmHg 39%
13:00 +12°C° 0 mm 4 mps 742 mmHg 37%
14:00 +12°C° 0 mm 4 mps 742 mmHg 37%
15:00 +12°C° 0 mm 5 mps 742 mmHg 38%
16:00 +12°C° 0 mm 5 mps 742 mmHg 39%
17:00 +10°C° 0 mm 4 mps 742 mmHg 47%
18:00 +8°C° 0 mm 3 mps 742 mmHg 55%
19:00 +5°C° 0 mm 3 mps 742 mmHg 63%
20:00 +5°C° 0 mm 3 mps 742 mmHg 66%
21:00 +5°C° 0 mm 2 mps 742 mmHg 69%
22:00 +4°C° 0 mm 2 mps 743 mmHg 72%
23:00 +4°C° 0 mm 2 mps 742 mmHg 74%
Show more